Zurück zum Katalog

DMSP 5D-2 F11 DEB

AktivSSO
NORAD 28317·DEBRIS·🇺🇸 United States

Gestartet Nov 28, 1991 von Vandenberg Space Force Base

Loading…

Nächste Überflüge (nächste 24 Stunden)

TLE

AktuellSource: Space-Track

Epoche: Sep 14, 2026, 00:13 UTC

1 28317U 91082AE  26257.00935953  .00000663  00000-0  30680-3 0  9992
2 28317  98.8588 276.4886 0118575  36.0165 354.2002 14.20536289155825

Verfolge DMSP 5D-2 F11 DEB in Echtzeit mit AllMySat

Download on the App Store